Weather Service Report


130 
ASUS41 KBTV 251630
RWRBTV
VERMONT REGIONAL WEATHER ROUNDUP
NATIONAL WEATHER SERVICE BURLINGTON VT
1200 PM EDT FRI JUL 25 2014

NOTE: "FAIR" INDICATES FEW OR NO CLOUDS BELOW 12,000 FEET WITH NO 
SIGNIFICANT WEATHER AND/OR OBSTRUCTIONS TO VISIBILITY.

* THESE REPORTS ARE NOT UNDER NWS QUALITY CONTROL AND/OR DO NOT
  REPORT WEATHER SUCH AS PRECIPITATION AND FOG.

VTZ001>019-251700-
_____VERMONT_____

  
CITY           SKY/WX    TMP DP  RH WIND       PRES   REMARKS
BURLINGTON     SUNNY     75  55  49 SW8       29.96F                  
MONTPELIER     SUNNY     73  54  51 W10       30.02F                  
ST. JOHNSBURY*   N/A     74  54  49 MISG      29.94F                  
LYNDONVILLE*   FAIR      72  52  49 W9G17     29.98F                  
MIDDLEBURY*    FAIR      73  57  56 S6        29.98S                  
RUTLAND*       SUNNY     72  54  53 SW3       30.00F                  
SPRINGFIELD    SUNNY     75  52  44 VRB5      29.99F                  
HIGHGATE*      PTSUNNY   73  57  58 S6        29.95S                  
NEWPORT*       FAIR     N/A N/A N/A W5        29.96F                  
BENNINGTON     SUNNY     72  56  57 VRB3      30.03F                  
SUTTON*          N/A     70 N/A N/A MISG        N/A                   
MT. MANSFIELD*   N/A     59 N/A N/A NW15        N/A                   

_____LAKE CHAMPLAIN_____

  
CITY           SKY/WX    TMP DP  RH WIND       PRES   REMARKS
COLCHESTER RF*   N/A     68  57  68 S17         N/A                   
DIAMOND ISL*     N/A     70  59  68 SW8         N/A                   

$$

NYZ007-026>031-035-052-083-251700-
_____NORTHERN NEW YORK_____

  
CITY           SKY/WX    TMP DP  RH WIND       PRES   REMARKS
PLATTSBURGH    SUNNY     72  61  68 SE14      29.94F                  
SARANAC LAKE   MOSUNNY   70  52  52 VRB5      30.00F                  
MASSENA        SUNNY     73  59  61 SW14G21   29.97S                  
OGDENSBURG*    SUNNY     73  57  56 SW12G20   29.98S                  
POTSDAM*       SUNNY     73  63  68 W15G21    29.98S                  
WATERTOWN      MOSUNNY   72  57  59 SW9G21    30.03S                  
FT DRUM        SUNNY     71  56  59 SW14G21   30.02S                  
ALBANY         MOSUNNY   75  56  51 VRB3      30.02F                  
GLENS FALLS    SUNNY     72  57  59 S6        30.00F                  

$$
NHZ002-005-011-251700-
_____NEW HAMPSHIRE_____

  
CITY           SKY/WX    TMP DP  RH WIND       PRES   REMARKS
LEBANON        SUNNY     75  55  49 CALM      29.97F                  
KEENE          SUNNY     73  52  46 N6        29.99F                  
MT WASHINGTON  FOG       46  46 100 W36G45      N/A  VSB 1/16         
PLYMOUTH       FAIR      75  54  48 NW13G18   29.95F                  
WHITEFIELD     SUNNY     72  55  55 SW3       29.97F                  

$$

_____REGIONAL QUEBEC LOCATIONS_____

  
CITY           SKY/WX    TMP DP  RH WIND       PRES   REMARKS
MONTREAL       MOSUNNY   72  59  64 SW16      29.93S                  
QUEBEC CITY    MOSUNNY   73  57  56 SW14      29.86F                  
SHERBROOKE     PTSUNNY   72  57  60 W10G17    29.93F                  

_____REGIONAL ONTARIO LOCATIONS_____

  
CITY           SKY/WX    TMP DP  RH WIND       PRES   REMARKS
OTTAWA         PTSUNNY   73  59  60 SW7       29.96S                  

______KEY______
VSB  - VISIBILITY IN MILES
WCI  - WIND CHILL INDEX
HX   - HEAT INDEX
$$
NNNN

Return to Home page


Western Regional Climate Center, wrcc@dri.edu